Weather observations for the past three days for
Cape Newenham, Cape Newenham LRRS Airport
Imperial (Metric)
Date Time (akdt) Wind (mph) Vis. (mi.) Weather Sky Cond. Temperature (ºF) Relative Humidity Wind Chill (°F) Heat Index (°F) Pressure Precipitation (in)
Air Dwpt 6 hour altimeter (in) sea level (mb) 1 hr 3 hr 6 hr
Max. Min.
18 11:55 N 9 10.00 Overcast OVC004 46.4 45.5 97% 42 30.16 1021.6
18 10:55 NW 12 10.00 Overcast OVC007 47.1 44.8 92% 42 30.14 1020.9
18 09:55 N 13 10.00 Overcast OVC004 47.1 45.5 47.5 46.6 94% 42 30.13 1020.4
18 07:55 NW 12 10.00 Overcast OVC003 46.9 46.4 98% 42 30.09 1019.3
18 06:55 N 16 10.00 Overcast OVC003 47.1 46.8 99% 41 30.07 1018.5
18 05:55 N 14 7.00 Overcast OVC002 47.1 46.8 99% 42 30.06 1018.2
18 04:55 N 14 7.00 Overcast OVC003 47.1 46.8 99% 42 30.05 1017.9
18 03:55 NW 10 10.00 Overcast OVC004 47.3 46.6 48 46.9 97% 43 30.04 1017.6
18 02:55 N 13 7.00 Overcast OVC003 47.7 47.1 98% 43 30.04 1017.4
18 01:55 N 20 10.00 Mostly Cloudy FEW004 BKN029 48 47.1 97% 42 30.02 1016.9
18 00:55 N 15 7.00 Overcast BKN003 OVC037 47.5 47.1 99% 42 30.01 1016.5
17 23:55 N 15 10.00 Overcast SCT004 OVC040 47.7 46.8 97% 42 30 1016.1
17 22:55 N 9 10.00 Mostly Cloudy FEW005 BKN040 47.1 45.7 95% 43 29.99 1015.9
17 21:55 N 15 10.00 Overcast FEW006 OVC029 47.5 45.5 48.7 46.8 93% 42 29.98 1015.5
17 20:55 NW 12 10.00 A Few Clouds FEW006 FEW017 48 45.1 90% 44 29.97 1015.2
17 19:55 NW 16 10.00 Overcast SCT005 OVC038 48.2 45.5 90% 43 29.97 1015.1
17 18:55 NW 16 10.00 Overcast OVC012 46.9 44.6 92% 41 29.96 1015.0
17 17:55 N 13 10.00 Overcast OVC014 47.8 44.2 87% 43 29.96 1015.1
17 16:55 N 16 10.00 Overcast OVC010 47.8 43.7 86% 42 29.96 1014.9
17 15:55 N 13 10.00 Mostly Cloudy SCT010 BKN010 48.2 43.3 48 45.3 83% 43 29.95 1014.6
17 14:57 N 15 10.00 Partly Cloudy FEW009 SCT180 48.2 44.6 87% 43 29.94 1014.3
17 13:56 N 17 10.00 Partly Cloudy FEW004 SCT006 46.4 44.6 93% 40 29.93 1014.1
17 12:55 N 15 10.00 Overcast OVC003 46.4 46.4 100% 41 29.92 1013.7
17 11:55 N 14 10.00 Overcast OVC004 46.4 46.4 100% 41 29.92 1013.6
17 10:55 N 10 10.00 Overcast OVC005 46.4 44.6 93% 42 29.91 1013.3
17 07:55 Vrbl 6 1.50 Fog/Mist OVC002 42.8 42.8 100% 40 29.9 1012.8
17 05:55 Calm 10.00 Overcast BKN007 OVC050 42.1 40.6 95% 29.9 1013.0
17 04:55 W 2 10.00 Overcast OVC005 41.7 40.3 95% 29.9 1013.1
17 03:55 Vrbl 3 10.00 Overcast OVC005 41.5 40.1 41.9 40.8 95% 29.91 1013.3 0.06
17 02:55 NW 3 10.00 Mostly Cloudy FEW004 FEW034 SCT039 BKN065 BKN130 41.5 40.3 95% 29.91 1013.4
17 01:55 Calm 10.00 Light Rain FEW006 FEW032 SCT047 OVC065 41.4 39.7 94% 29.91 1013.5 0.03
17 00:55 NW 6 10.00 Light Rain SCT006 OVC033 41.4 39.6 93% 38 29.92 1013.7 0.02 0.02
16 23:55 Vrbl 3 10.00 Light Showers Rain SCT006 BKN048 OVC055 41.2 39.7 95% 29.92 1013.7 0.01
16 22:55 NW 8 10.00 Light Showers Rain OVC004 41 39.7 95% 36 29.93 1014.0
16 21:55 Vrbl 7 10.00 Light Showers Rain OVC004 41.2 39.6 47.8 41.2 94% 37 29.92 1013.9
16 20:55 NW 8 10.00 Overcast OVC002 41.9 40.1 93% 37 29.93 1014.0
16 19:55 Vrbl 6 10.00 Overcast OVC007 43.2 40.3 90% 40 29.92 1013.8
16 18:55 N 9 10.00 Overcast OVC004 41.7 40.6 96% 37 29.93 1014.1
16 17:55 N 12 G 20 10.00 Mostly Cloudy BKN009 BKN210 44.6 41.5 89% 39 29.93 1014.0
16 16:55 Vrbl 6 10.00 Mostly Cloudy SCT011 BKN210 46 41.7 85% 44 29.92 1013.7
16 15:55 N 13 10.00 Overcast OVC009 46 40.6 46.8 40.5 82% 41 29.93 1014.0
16 14:55 N 10 10.00 Overcast OVC006 43.7 41.7 93% 39 29.93 1013.9
16 13:55 N 13 10.00 Overcast OVC006 42.8 39 87% 37 29.93 1014.1
16 12:55 N 12 10.00 Overcast OVC003 42.1 39.6 91% 36 29.93 1013.9
16 11:55 N 13 10.00 Overcast OVC004 41.5 39.6 93% 35 29.92 1013.6
16 10:55 Vrbl 2 10.00 Overcast OVC003 41 40.3 97% 29.92 1013.6
16 09:55 W 5 10.00 Overcast OVC004 40.6 39.7 41.5 40.1 97% 38 29.92 1013.6
16 08:55 Vrbl 6 1.50 Fog/Mist OVC002 40.5 40.1 99% 37 29.91 1013.3
16 07:55 Vrbl 5 1.00 Fog/Mist OVC002 40.1 39.9 99% 37 29.9 1013.0
16 06:55 NW 9 10.00 Overcast BKN002 OVC070 40.5 39.9 98% 35 29.9 1012.9
16 05:55 N 8 3.00 Fog/Mist OVC003 41 40.5 98% 36 29.89 1012.6
16 04:55 N 1 0.50 Fog OVC003 40.8 40.5 99% 29.89 1012.5
16 03:55 Vrbl 3 10.00 Overcast OVC003 41.2 40.3 43.5 41.2 97% 29.89 1012.5
16 02:55 Vrbl 3 10.00 Overcast BKN005 OVC065 41.5 40.1 95% 29.88 1012.3
16 01:55 Calm 10.00 Overcast FEW023 OVC070 41.4 40.5 97% 29.87 1012.1
16 00:55 Calm 10.00 Overcast SCT022 OVC075 41.7 40.5 95% 29.87 1011.9
15 23:55 NE 3 10.00 Overcast BKN021 OVC080 41.9 40.5 95% 29.86 1011.6
15 22:55 Vrbl 5 10.00 Overcast BKN010 OVC021 42.6 41 94% 40 29.85 1011.3
15 21:55 Vrbl 2 10.00 Overcast OVC005 43 40.6 45.9 42.4 91% 29.84 1010.8
15 20:55 NW 9 6.00 Overcast OVC005 43 41 93% 38 29.84 1011.1
15 19:55 W 12 10.00 Overcast OVC007 43.5 40.6 90% 38 29.85 1011.2
15 18:55 NW 12 10.00 Overcast OVC006 44.4 41.9 91% 39 29.84 1010.9
15 17:55 NW 16 10.00 Overcast BKN007 OVC032 45 41.2 87% 38 29.83 1010.5
15 16:55 W 16 10.00 Overcast FEW007 OVC033 44.8 41.4 88% 38 29.82 1010.2
15 15:55 W 17 10.00 Mostly Cloudy BKN009 BKN036 45.7 41.7 45.5 42.4 86% 39 29.81 1009.8
15 14:55 W 15 10.00 Overcast OVC010 44.6 41.2 88% 38 29.8 1009.6
15 13:55 NW 13 10.00 Mostly Cloudy BKN011 44.1 39.7 85% 38 29.78 1009.0
15 12:55 NW 10 10.00 Overcast OVC015 43.3 39.2 85% 38 29.78 1008.9
Date Time (akdt) Wind (mph) Vis. (mi.) Weather Sky Cond. Air Dwpt Max. Min. Relative Humidity Wind Chill (°F) Heat Index (°F) altimeter (in) sea level (mb) 1 hr 3 hr 6 hr
6 hour
Temperature (ºF) Pressure Precipitation (in)